QPF
0.00 0.00 0.00 0.00 0.00 0.00 0.00 0.00 0.00 0.00 0.00 0.00 0.00 0.01 0.01 0.01 0.02 0.02 0.02 0.03 0.04 0.04 0.03 0.02 0.02 0.02 0.01 0.01 0.02 0.02 0.04 0.04 0.04 0.05 0.06 0.08 0.08 0.08 0.06 0.04 0.03 0.02 0.01 0.02
0.00 0.00 0.00 0.00 0.00 0.00 0.00 0.00 0.00 0.00 0.00 0.00 0.00 0.01 0.01 0.01 0.01 0.02 0.02 0.03 0.04 0.03 0.02 0.02 0.02 0.02 0.02 0.02 0.02 0.02 0.02 0.03 0.04 0.04 0.04 0.05 0.06 0.06 0.05 0.05 0.04 0.03 0.02 0.02
0.00 0.00 0.00 0.00 0.00 0.00 0.00 0.00 0.00 0.00 0.00 0.00 0.00 0.01 0.01 0.01 0.02 0.02 0.02 0.03 0.05 0.04 0.02 0.02 0.02 0.02 0.03 0.03 0.02 0.02 0.01 0.02 0.02 0.02 0.01 0.01 0.02 0.02 0.02 0.02 0.02 0.02 0.01 0.01
0.00 0.00 0.00 0.00 0.00 0.00 0.00 0.00 0.00 0.00 0.00 0.00 0.00 0.00 0.01 0.01 0.02 0.03 0.03 0.04 0.03 0.03 0.02 0.02 0.01 0.01 0.02 0.02 0.02 0.02 0.02 0.02 0.02 0.01 0.01 0.00 0.00 0.00 0.00 0.01 0.01 0.01 0.00 0.00
0.00 0.00 0.00 0.00 0.00 0.00 0.00 0.00 0.00 0.00 0.00 0.00 0.00 0.00 0.01 0.01 0.02 0.03 0.03 0.03 0.02 0.02 0.02 0.01 0.01 0.01 0.01 0.01 0.03 0.04 0.04 0.03 0.02 0.02 0.01 0.01 0.01 0.01 0.01 0.00 0.00 0.00 0.00 0.00
0.00 0.00 0.00 0.00 0.00 0.00 0.00 0.00 0.00 0.00 0.00 0.00 0.00 0.01 0.00 0.01 0.01 0.01 0.02 0.01 0.01 0.01 0.01 0.01 0.01 0.01 0.01 0.01 0.02 0.03 0.03 0.04 0.03 0.02 0.02 0.02 0.02 0.01 0.01 0.01 0.00 0.00 0.00 0.00
0.00 0.00 0.00 0.00 0.00 0.00 0.00 0.00 0.00 0.00 0.00 0.00 0.01 0.01 0.00 0.01 0.01 0.01 0.01 0.01 0.01 0.01 0.01 0.01 0.02 0.02 0.02 0.02 0.03 0.04 0.04 0.04 0.04 0.04 0.05 0.04 0.04 0.03 0.02 0.02 0.01 0.01 0.01 0.01
0.00 0.00 0.00 0.00 0.00 0.00 0.00 0.00 0.00 0.00 0.00 0.00 0.01 0.01 0.00 0.01 0.00 0.01 0.01 0.00 0.00 0.00 0.01 0.01 0.02 0.03 0.03 0.04 0.06 0.08 0.09 0.11 0.13 0.12 0.12 0.09 0.06 0.05 0.03 0.03 0.03 0.02 0.02 0.02
0.00 0.00 0.00 0.00 0.00 0.00 0.00 0.00 0.00 0.00 0.00 0.00 0.00 0.00 0.00 0.00 0.00 0.01 0.01 0.01 0.01 0.01 0.01 0.01 0.02 0.03 0.03 0.03 0.03 0.05 0.08 0.12 0.19 0.18 0.14 0.11 0.09 0.07 0.05 0.04 0.03 0.02 0.02 0.03
0.00 0.00 0.00 0.00 0.00 0.00 0.00 0.00 0.00 0.00 0.00 0.00 0.00 0.00 0.00 0.00 0.00 0.01 0.01 0.01 0.02 0.01 0.01 0.02 0.02 0.03 0.04 0.04 0.04 0.05 0.08 0.10 0.16 0.19 0.16 0.12 0.10 0.08 0.06 0.05 0.04 0.03 0.03 0.03
0.00 0.00 0.00 0.00 0.00 0.00 0.00 0.00 0.00 0.00 0.00 0.00 0.00 0.00 0.01 0.01 0.01 0.01 0.01 0.02 0.02 0.02 0.02 0.02 0.02 0.03 0.04 0.05 0.06 0.05 0.05 0.07 0.09 0.11 0.11 0.09 0.10 0.09 0.06 0.04 0.03 0.03 0.03 0.03
0.00 0.00 0.00 0.00 0.00 0.00 0.00 0.00 0.00 0.00 0.00 0.00 0.00 0.00 0.01 0.01 0.01 0.01 0.01 0.01 0.01 0.02 0.02 0.02 0.02 0.02 0.04 0.06 0.06 0.04 0.04 0.05 0.05 0.05 0.05 0.05 0.04 0.05 0.05 0.04 0.03 0.04 0.04 0.05
0.00 0.00 0.00 0.00 0.00 0.00 0.00 0.00 0.00 0.00 0.00 0.00 0.00 0.01 0.01 0.01 0.01 0.01 0.01 0.01 0.02 0.02 0.01 0.01 0.01 0.01 0.02 0.03 0.06 0.04 0.03 0.04 0.04 0.03 0.03 0.02 0.02 0.03 0.03 0.03 0.03 0.04 0.04 0.05
0.00 0.00 0.00 0.00 0.00 0.00 0.00 0.00 0.00 0.00 0.00 0.00 0.00 0.01 0.01 0.01 0.01 0.01 0.01 0.01 0.01 0.01 0.01 0.01 0.01 0.01 0.01 0.01 0.01 0.02 0.02 0.02 0.03 0.03 0.02 0.02 0.02 0.02 0.02 0.02 0.02 0.03 0.03 0.03
0.00 0.00 0.00 0.00 0.00 0.00 0.00 0.00 0.00 0.00 0.00 0.00 0.00 0.01 0.01 0.01 0.02 0.02 0.02 0.02 0.02 0.02 0.01 0.01 0.01 0.01 0.01 0.01 0.01 0.01 0.02 0.01 0.01 0.02 0.02 0.02 0.02 0.02 0.02 0.02 0.03 0.04 0.04 0.04
0.00 0.00 0.00 0.00 0.00 0.00 0.00 0.00 0.00 0.00 0.00 0.00 0.01 0.01 0.01 0.01 0.02 0.02 0.02 0.02 0.02 0.02 0.01 0.01 0.01 0.01 0.01 0.01 0.01 0.01 0.02 0.02 0.02 0.02 0.02 0.02 0.02 0.03 0.02 0.02 0.03 0.04 0.03 0.04
0.00 0.00 0.00 0.00 0.00 0.00 0.01 0.00 0.00 0.00 0.01 0.02 0.01 0.01 0.01 0.01 0.01 0.01 0.01 0.01 0.02 0.01 0.01 0.01 0.01 0.01 0.01 0.01 0.01 0.02 0.02 0.03 0.03 0.02 0.01 0.02 0.03 0.03 0.03 0.03 0.04 0.04 0.05 0.05
0.00 0.00 0.01 0.01 0.00 0.00 0.00 0.00 0.00 0.00 0.01 0.01 0.02 0.02 0.01 0.01 0.01 0.01 0.01 0.01 0.01 0.02 0.01 0.01 0.00 0.00 0.01 0.01 0.01 0.01 0.02 0.05 0.04 0.02 0.02 0.02 0.02 0.02 0.03 0.04 0.05 0.05 0.07 0.06
0.00 0.00 0.01 0.01 0.00 0.00 0.00 0.00 0.00 0.01 0.01 0.01 0.01 0.02 0.02 0.02 0.02 0.02 0.02 0.02 0.02 0.02 0.01 0.00 0.00 0.00 0.00 0.01 0.01 0.01 0.02 0.03 0.04 0.04 0.03 0.03 0.01 0.01 0.01 0.03 0.05 0.05 0.05 0.04
0.00 0.00 0.01 0.01 0.01 0.01 0.01 0.01 0.01 0.01 0.01 0.00 0.01 0.01 0.02 0.02 0.02 0.03 0.02 0.02 0.02 0.01 0.01 0.00 0.00 0.00 0.00 0.00 0.01 0.01 0.02 0.02 0.03 0.03 0.03 0.02 0.02 0.02 0.02 0.03 0.05 0.06 0.05 0.02
0.01 0.01 0.01 0.01 0.01 0.01 0.01 0.02 0.01 0.01 0.01 0.01 0.01 0.01 0.01 0.02 0.02 0.03 0.02 0.01 0.01 0.01 0.00 0.01 0.01 0.01 0.01 0.01 0.01 0.01 0.02 0.02 0.02 0.04 0.04 0.04 0.05 0.04 0.04 0.03 0.04 0.06 0.05 0.02
0.01 0.01 0.01 0.01 0.01 0.01 0.02 0.02 0.02 0.02 0.01 0.01 0.01 0.01 0.02 0.02 0.02 0.02 0.02 0.01 0.01 0.01 0.01 0.01 0.01 0.01 0.01 0.01 0.01 0.02 0.02 0.02 0.02 0.02 0.03 0.04 0.04 0.04 0.04 0.03 0.03 0.04 0.03 0.02
0.00 0.00 0.01 0.01 0.02 0.02 0.02 0.03 0.03 0.03 0.02 0.02 0.02 0.02 0.03 0.03 0.02 0.01 0.02 0.02 0.01 0.01 0.01 0.00 0.00 0.00 0.01 0.01 0.01 0.01 0.02 0.02 0.03 0.03 0.03 0.04 0.05 0.04 0.03 0.03 0.03 0.03 0.03 0.02
0.01 0.01 0.01 0.01 0.02 0.01 0.02 0.02 0.02 0.03 0.03 0.03 0.04 0.06 0.05 0.04 0.03 0.02 0.01 0.01 0.01 0.01 0.01 0.01 0.01 0.01 0.01 0.01 0.01 0.01 0.01 0.01 0.03 0.04 0.03 0.04 0.05 0.05 0.04 0.03 0.03 0.02 0.02 0.01
0.01 0.01 0.01 0.01 0.01 0.02 0.01 0.01 0.01 0.02 0.03 0.05 0.06 0.05 0.03 0.03 0.03 0.01 0.01 0.01 0.01 0.01 0.01 0.01 0.01 0.01 0.01 0.01 0.01 0.01 0.01 0.01 0.02 0.03 0.03 0.03 0.03 0.03 0.03 0.03 0.02 0.01 0.01 0.01
0.00 0.01 0.01 0.01 0.01 0.01 0.01 0.01 0.01 0.02 0.02 0.03 0.03 0.03 0.04 0.05 0.04 0.03 0.03 0.03 0.02 0.02 0.02 0.02 0.02 0.01 0.01 0.01 0.01 0.01 0.01 0.01 0.01 0.03 0.03 0.02 0.02 0.02 0.02 0.02 0.01 0.01 0.01 0.01
MSLP
1009.97 1010.82 1011.51 1012.02 1012.38 1012.64 1012.85 1013.05 1013.28 1013.53 1013.82 1014.13 1014.47 1014.81 1015.18 1015.56 1015.98 1016.42 1016.88 1017.34 1017.77 1018.13 1018.39 1018.54 1018.57 1018.50 1018.34 1018.14 1017.93 1017.72 1017.53 1017.35 1017.19 1016.99 1016.76 1016.47 1016.11 1015.68 1015.20 1014.69 1014.16 1013.64 1013.13 1012.65
1010.31 1010.99 1011.49 1011.84 1012.09 1012.29 1012.52 1012.79 1013.12 1013.49 1013.90 1014.29 1014.66 1015.01 1015.33 1015.65 1016.00 1016.39 1016.82 1017.27 1017.72 1018.12 1018.44 1018.64 1018.72 1018.67 1018.53 1018.34 1018.14 1017.95 1017.80 1017.68 1017.58 1017.47 1017.32 1017.09 1016.77 1016.37 1015.89 1015.37 1014.83 1014.30 1013.79 1013.32
1010.40 1010.90 1011.22 1011.43 1011.60 1011.80 1012.08 1012.47 1012.96 1013.49 1014.02 1014.51 1014.91 1015.23 1015.48 1015.71 1015.96 1016.26 1016.63 1017.07 1017.53 1017.98 1018.36 1018.63 1018.76 1018.76 1018.64 1018.46 1018.27 1018.09 1017.97 1017.90 1017.86 1017.82 1017.74 1017.58 1017.32 1016.96 1016.51 1016.00 1015.46 1014.93 1014.43 1013.97
1010.28 1010.60 1010.77 1010.88 1011.02 1011.28 1011.68 1012.24 1012.91 1013.62 1014.29 1014.86 1015.27 1015.54 1015.70 1015.79 1015.90 1016.08 1016.36 1016.76 1017.22 1017.72 1018.16 1018.50 1018.70 1018.75 1018.67 1018.51 1018.32 1018.14 1018.03 1017.98 1017.98 1018.00 1017.99 1017.90 1017.71 1017.41 1016.99 1016.51 1015.99 1015.47 1014.99 1014.55
1010.01 1010.18 1010.24 1010.31 1010.49 1010.84 1011.41 1012.17 1013.04 1013.94 1014.74 1015.37 1015.78 1015.97 1015.98 1015.91 1015.85 1015.87 1016.04 1016.37 1016.83 1017.35 1017.86 1018.28 1018.56 1018.67 1018.64 1018.49 1018.30 1018.12 1017.99 1017.95 1017.97 1018.02 1018.06 1018.04 1017.92 1017.68 1017.32 1016.88 1016.39 1015.89 1015.42 1015.00
1009.66 1009.72 1009.74 1009.82 1010.08 1010.58 1011.34 1012.31 1013.38 1014.44 1015.35 1016.01 1016.38 1016.46 1016.32 1016.06 1015.80 1015.66 1015.70 1015.95 1016.38 1016.93 1017.50 1018.00 1018.36 1018.55 1018.56 1018.44 1018.25 1018.05 1017.90 1017.84 1017.86 1017.93 1018.01 1018.04 1017.98 1017.79 1017.49 1017.09 1016.63 1016.16 1015.70 1015.29
1009.30 1009.32 1009.33 1009.48 1009.86 1010.53 1011.47 1012.63 1013.88 1015.06 1016.04 1016.70 1017.00 1016.96 1016.65 1016.19 1015.74 1015.43 1015.33 1015.50 1015.90 1016.47 1017.09 1017.68 1018.13 1018.39 1018.47 1018.38 1018.20 1017.99 1017.82 1017.72 1017.72 1017.79 1017.88 1017.94 1017.93 1017.80 1017.54 1017.18 1016.75 1016.28 1015.83 1015.42
1008.98 1008.99 1009.07 1009.32 1009.83 1010.65 1011.76 1013.07 1014.43 1015.68 1016.67 1017.30 1017.51 1017.33 1016.86 1016.23 1015.61 1015.15 1014.94 1015.04 1015.41 1015.99 1016.68 1017.34 1017.88 1018.23 1018.38 1018.35 1018.19 1017.97 1017.79 1017.67 1017.64 1017.69 1017.77 1017.85 1017.86 1017.76 1017.54 1017.20 1016.78 1016.32 1015.85 1015.42
1008.71 1008.77 1008.94 1009.30 1009.95 1010.90 1012.11 1013.50 1014.90 1016.15 1017.10 1017.65 1017.76 1017.47 1016.87 1016.11 1015.38 1014.81 1014.52 1014.57 1014.93 1015.53 1016.27 1017.00 1017.63 1018.08 1018.31 1018.35 1018.23 1018.05 1017.85 1017.72 1017.67 1017.69 1017.76 1017.82 1017.84 1017.75 1017.54 1017.21 1016.79 1016.31 1015.81 1015.35
1008.47 1008.63 1008.91 1009.40 1010.15 1011.18 1012.43 1013.81 1015.17 1016.35 1017.21 1017.66 1017.67 1017.29 1016.61 1015.79 1015.00 1014.39 1014.08 1014.11 1014.47 1015.10 1015.88 1016.68 1017.40 1017.94 1018.27 1018.39 1018.34 1018.20 1018.03 1017.90 1017.83 1017.83 1017.88 1017.92 1017.92 1017.82 1017.61 1017.27 1016.83 1016.32 1015.78 1015.26
1008.26 1008.55 1008.96 1009.56 1010.38 1011.43 1012.64 1013.93 1015.16 1016.20 1016.92 1017.26 1017.19 1016.75 1016.05 1015.24 1014.47 1013.90 1013.61 1013.67 1014.06 1014.71 1015.53 1016.39 1017.18 1017.80 1018.23 1018.45 1018.49 1018.42 1018.30 1018.19 1018.12 1018.11 1018.12 1018.14 1018.10 1017.98 1017.75 1017.39 1016.92 1016.38 1015.79 1015.21
1008.07 1008.52 1009.07 1009.75 1010.60 1011.60 1012.70 1013.82 1014.86 1015.71 1016.26 1016.48 1016.34 1015.90 1015.25 1014.52 1013.85 1013.36 1013.16 1013.28 1013.71 1014.40 1015.24 1016.14 1016.97 1017.67 1018.18 1018.50 1018.64 1018.66 1018.61 1018.53 1018.48 1018.45 1018.43 1018.41 1018.35 1018.19 1017.93 1017.54 1017.05 1016.47 1015.85 1015.22
1007.92 1008.54 1009.21 1009.96 1010.79 1011.69 1012.62 1013.52 1014.32 1014.93 1015.31 1015.40 1015.23 1014.82 1014.28 1013.69 1013.18 1012.85 1012.77 1012.98 1013.46 1014.17 1015.03 1015.93 1016.79 1017.54 1018.12 1018.52 1018.76 1018.87 1018.88 1018.85 1018.81 1018.77 1018.73 1018.67 1018.56 1018.37 1018.07 1017.67 1017.16 1016.56 1015.91 1015.24
1007.87 1008.64 1009.42 1010.20 1010.97 1011.73 1012.45 1013.09 1013.61 1013.99 1014.17 1014.17 1013.98 1013.65 1013.24 1012.85 1012.54 1012.40 1012.48 1012.79 1013.33 1014.06 1014.91 1015.80 1016.65 1017.41 1018.03 1018.50 1018.81 1018.99 1019.07 1019.08 1019.05 1019.00 1018.92 1018.81 1018.65 1018.42 1018.10 1017.68 1017.16 1016.56 1015.91 1015.21
1007.95 1008.85 1009.70 1010.47 1011.16 1011.74 1012.23 1012.59 1012.85 1012.98 1012.99 1012.90 1012.72 1012.49 1012.26 1012.08 1012.00 1012.07 1012.31 1012.73 1013.33 1014.06 1014.88 1015.74 1016.56 1017.30 1017.93 1018.43 1018.79 1019.02 1019.14 1019.17 1019.14 1019.06 1018.94 1018.77 1018.56 1018.28 1017.93 1017.50 1016.99 1016.41 1015.76 1015.08
1008.18 1009.17 1010.05 1010.78 1011.35 1011.75 1011.99 1012.10 1012.10 1012.02 1011.88 1011.73 1011.58 1011.47 1011.41 1011.45 1011.59 1011.87 1012.27 1012.80 1013.44 1014.17 1014.96 1015.75 1016.52 1017.22 1017.83 1018.32 1018.69 1018.95 1019.08 1019.11 1019.06 1018.94 1018.76 1018.53 1018.25 1017.92 1017.54 1017.10 1016.60 1016.04 1015.43 1014.77
1008.54 1009.56 1010.42 1011.08 1011.52 1011.73 1011.76 1011.63 1011.41 1011.15 1010.91 1010.72 1010.62 1010.62 1010.74 1010.99 1011.34 1011.80 1012.35 1012.98 1013.66 1014.37 1015.11 1015.84 1016.53 1017.17 1017.73 1018.20 1018.56 1018.80 1018.92 1018.93 1018.84 1018.66 1018.41 1018.10 1017.75 1017.36 1016.94 1016.49 1015.99 1015.46 1014.88 1014.25
1008.96 1009.95 1010.74 1011.29 1011.58 1011.63 1011.47 1011.16 1010.78 1010.41 1010.10 1009.91 1009.86 1009.99 1010.27 1010.69 1011.23 1011.85 1012.52 1013.22 1013.93 1014.63 1015.31 1015.97 1016.59 1017.16 1017.67 1018.09 1018.41 1018.62 1018.71 1018.67 1018.52 1018.28 1017.95 1017.56 1017.13 1016.67 1016.20 1015.71 1015.21 1014.68 1014.12 1013.52
1009.32 1010.20 1010.88 1011.31 1011.46 1011.37 1011.08 1010.65 1010.18 1009.75 1009.43 1009.27 1009.30 1009.54 1009.96 1010.54 1011.22 1011.96 1012.72 1013.48 1014.21 1014.89 1015.53 1016.13 1016.68 1017.18 1017.62 1017.98 1018.26 1018.43 1018.47 1018.39 1018.18 1017.86 1017.46 1016.98 1016.47 1015.94 1015.41 1014.87 1014.34 1013.79 1013.23 1012.64
1009.47 1010.21 1010.75 1011.04 1011.08 1010.89 1010.52 1010.05 1009.56 1009.14 1008.86 1008.77 1008.90 1009.24 1009.78 1010.47 1011.27 1012.10 1012.93 1013.72 1014.46 1015.12 1015.73 1016.27 1016.76 1017.20 1017.58 1017.89 1018.11 1018.24 1018.23 1018.10 1017.85 1017.47 1017.00 1016.46 1015.87 1015.27 1014.66 1014.06 1013.47 1012.88 1012.28 1011.67
1009.31 1009.88 1010.26 1010.43 1010.38 1010.14 1009.76 1009.31 1008.88 1008.53 1008.35 1008.36 1008.60 1009.05 1009.69 1010.47 1011.34 1012.23 1013.10 1013.91 1014.64 1015.30 1015.87 1016.37 1016.81 1017.20 1017.52 1017.78 1017.96 1018.04 1018.00 1017.84 1017.55 1017.13 1016.62 1016.03 1015.38 1014.71 1014.02 1013.34 1012.67 1012.01 1011.35 1010.70
1008.80 1009.19 1009.42 1009.48 1009.38 1009.14 1008.81 1008.45 1008.13 1007.92 1007.87 1008.02 1008.38 1008.94 1009.66 1010.51 1011.41 1012.33 1013.22 1014.03 1014.76 1015.40 1015.94 1016.40 1016.80 1017.14 1017.43 1017.64 1017.78 1017.83 1017.76 1017.58 1017.27 1016.84 1016.31 1015.70 1015.01 1014.29 1013.54 1012.78 1012.01 1011.25 1010.51 1009.77
1007.98 1008.19 1008.29 1008.27 1008.15 1007.96 1007.72 1007.50 1007.35 1007.32 1007.44 1007.74 1008.22 1008.88 1009.67 1010.55 1011.48 1012.41 1013.29 1014.09 1014.81 1015.42 1015.94 1016.37 1016.73 1017.03 1017.27 1017.44 1017.55 1017.56 1017.48 1017.29 1016.99 1016.58 1016.06 1015.45 1014.76 1014.00 1013.20 1012.36 1011.51 1010.64 1009.79 1008.96
1006.95 1007.01 1007.00 1006.93 1006.83 1006.71 1006.60 1006.55 1006.59 1006.75 1007.06 1007.51 1008.12 1008.86 1009.70 1010.61 1011.55 1012.46 1013.33 1014.11 1014.80 1015.39 1015.88 1016.28 1016.61 1016.87 1017.06 1017.19 1017.25 1017.24 1017.15 1016.97 1016.69 1016.31 1015.83 1015.25 1014.58 1013.82 1012.99 1012.10 1011.16 1010.20 1009.24 1008.31
1005.85 1005.78 1005.69 1005.60 1005.54 1005.52 1005.56 1005.69 1005.92 1006.28 1006.75 1007.35 1008.07 1008.88 1009.76 1010.68 1011.61 1012.50 1013.34 1014.10 1014.76 1015.32 1015.79 1016.16 1016.45 1016.66 1016.80 1016.88 1016.91 1016.87 1016.77 1016.59 1016.35 1016.01 1015.59 1015.06 1014.44 1013.71 1012.88 1011.96 1010.97 1009.93 1008.88 1007.85
1004.83 1004.67 1004.52 1004.43 1004.42 1004.50 1004.68 1004.98 1005.39 1005.91 1006.54 1007.27 1008.08 1008.94 1009.84 1010.76 1011.66 1012.53 1013.34 1014.07 1014.71 1015.25 1015.69 1016.03 1016.28 1016.44 1016.54 1016.57 1016.55 1016.48 1016.36 1016.19 1015.97 1015.69 1015.33 1014.88 1014.32 1013.65 1012.86 1011.95 1010.94 1009.86 1008.74 1007.64
Thickness
5759 5747 5740 5746 5751 5754 5752 5747 5743 5753 5767 5764 5759 5760 5768 5774 5774 5772 5770 5770 5770 5771 5774 5774 5773 5771 5767 5764 5761 5759 5756 5754 5752 5749 5745 5742 5740 5739 5738 5737 5737 5736 5735 5734
5742 5739 5752 5756 5755 5752 5748 5742 5742 5752 5764 5761 5754 5755 5765 5769 5772 5773 5771 5769 5769 5769 5769 5769 5769 5767 5765 5762 5760 5757 5755 5753 5751 5749 5745 5743 5740 5738 5736 5735 5735 5734 5734 5732
5737 5746 5758 5754 5749 5745 5743 5740 5743 5744 5753 5756 5751 5745 5754 5763 5767 5768 5768 5768 5767 5766 5764 5764 5764 5763 5763 5761 5759 5758 5754 5751 5749 5746 5743 5740 5737 5735 5733 5732 5732 5732 5731 5730
5738 5750 5753 5749 5746 5746 5736 5752 5750 5746 5735 5727 5739 5721 5741 5750 5753 5758 5760 5762 5763 5764 5764 5762 5761 5760 5759 5759 5758 5755 5752 5749 5747 5744 5740 5736 5733 5730 5730 5730 5730 5730 5730 5728
5738 5748 5748 5745 5750 5751 5748 5755 5749 5742 5731 5722 5726 5718 5727 5742 5743 5750 5756 5760 5762 5764 5762 5761 5760 5760 5760 5759 5756 5753 5749 5746 5744 5742 5739 5735 5732 5730 5729 5728 5727 5727 5727 5726
5742 5752 5754 5754 5760 5758 5755 5745 5735 5723 5716 5705 5717 5713 5716 5730 5741 5750 5756 5759 5761 5761 5760 5759 5758 5758 5756 5756 5753 5750 5746 5744 5742 5739 5736 5733 5730 5728 5726 5725 5724 5723 5723 5723
5732 5742 5753 5758 5750 5751 5745 5722 5702 5701 5691 5696 5714 5712 5716 5739 5748 5752 5755 5757 5758 5757 5755 5754 5753 5752 5752 5750 5749 5747 5744 5741 5739 5736 5734 5732 5730 5728 5725 5723 5722 5720 5719 5720
5714 5716 5742 5751 5747 5738 5734 5724 5699 5690 5687 5692 5707 5706 5724 5745 5750 5754 5755 5755 5754 5753 5752 5751 5750 5749 5748 5747 5746 5744 5741 5739 5736 5734 5732 5731 5730 5727 5725 5723 5720 5719 5718 5718
5709 5715 5743 5750 5753 5744 5728 5717 5720 5699 5693 5688 5696 5709 5728 5744 5746 5748 5749 5749 5748 5748 5748 5747 5746 5745 5744 5743 5742 5740 5737 5735 5732 5731 5730 5728 5727 5725 5723 5721 5719 5718 5717 5717
5722 5716 5732 5742 5746 5739 5734 5719 5704 5694 5683 5680 5692 5700 5710 5729 5735 5740 5741 5743 5744 5743 5743 5742 5741 5740 5740 5739 5738 5736 5733 5730 5729 5728 5726 5726 5723 5722 5720 5718 5716 5716 5716 5715
5724 5711 5718 5727 5725 5722 5721 5714 5699 5687 5688 5678 5677 5694 5727 5730 5734 5735 5737 5739 5739 5739 5739 5737 5737 5737 5736 5735 5733 5731 5729 5727 5725 5724 5723 5721 5720 5719 5717 5715 5715 5714 5713 5712
5717 5703 5697 5712 5727 5731 5726 5714 5701 5693 5685 5680 5678 5694 5733 5732 5733 5732 5733 5734 5735 5736 5735 5734 5733 5732 5731 5730 5729 5727 5725 5723 5721 5720 5719 5718 5716 5715 5713 5712 5712 5711 5709 5708
5714 5698 5686 5693 5704 5716 5715 5711 5704 5692 5680 5673 5675 5696 5727 5727 5728 5729 5728 5729 5729 5729 5728 5728 5727 5726 5725 5725 5724 5722 5720 5719 5718 5717 5715 5713 5712 5711 5710 5709 5708 5707 5705 5704
5717 5694 5688 5685 5691 5702 5706 5707 5702 5694 5679 5676 5684 5699 5714 5718 5719 5721 5722 5722 5722 5722 5721 5720 5719 5719 5718 5718 5717 5716 5715 5715 5714 5712 5710 5709 5708 5707 5706 5705 5704 5702 5701 5699
5709 5693 5696 5698 5705 5705 5705 5704 5702 5698 5692 5687 5695 5697 5708 5713 5716 5717 5717 5715 5715 5715 5714 5714 5712 5712 5712 5712 5711 5710 5709 5709 5709 5706 5705 5704 5703 5702 5701 5700 5699 5697 5696 5694
5696 5690 5692 5692 5698 5700 5698 5702 5701 5699 5697 5695 5697 5697 5710 5711 5711 5710 5710 5709 5708 5708 5708 5708 5707 5706 5706 5706 5705 5704 5703 5703 5702 5700 5699 5698 5697 5696 5695 5694 5693 5691 5690 5688
5683 5681 5675 5674 5686 5690 5682 5694 5696 5696 5698 5695 5691 5699 5704 5703 5703 5702 5703 5703 5703 5702 5701 5700 5699 5699 5700 5700 5699 5698 5698 5697 5695 5694 5692 5692 5691 5690 5689 5689 5687 5685 5684 5682
5677 5668 5660 5662 5673 5664 5681 5700 5700 5695 5695 5697 5698 5699 5701 5700 5699 5699 5699 5698 5697 5697 5696 5694 5693 5693 5692 5693 5692 5692 5692 5690 5688 5687 5686 5685 5685 5683 5682 5682 5680 5679 5677 5675
5676 5667 5655 5649 5653 5662 5681 5692 5691 5687 5688 5694 5693 5694 5694 5694 5692 5690 5693 5693 5692 5691 5690 5689 5688 5687 5686 5685 5686 5685 5684 5683 5682 5681 5679 5679 5678 5677 5675 5674 5672 5671 5670 5669
5665 5662 5652 5646 5649 5650 5671 5688 5694 5688 5678 5689 5688 5686 5685 5685 5677 5680 5688 5688 5686 5686 5685 5683 5682 5680 5679 5678 5678 5677 5676 5676 5676 5675 5674 5673 5672 5670 5668 5667 5666 5664 5663 5663
5652 5648 5644 5642 5644 5653 5673 5683 5687 5668 5671 5685 5684 5681 5679 5678 5678 5680 5682 5681 5680 5679 5678 5677 5676 5673 5672 5671 5670 5669 5668 5668 5669 5669 5668 5667 5665 5664 5662 5661 5659 5658 5657 5656
5644 5640 5636 5634 5636 5646 5673 5675 5670 5670 5678 5680 5679 5677 5675 5674 5675 5674 5674 5673 5673 5672 5670 5669 5667 5665 5665 5663 5662 5661 5660 5662 5662 5662 5660 5659 5658 5657 5656 5653 5652 5651 5649 5648
5641 5643 5639 5641 5645 5658 5665 5668 5673 5672 5672 5674 5673 5673 5671 5669 5668 5667 5666 5665 5664 5664 5662 5661 5659 5657 5656 5655 5654 5653 5653 5653 5653 5652 5651 5650 5649 5648 5647 5645 5643 5642 5640 5639
5641 5642 5639 5641 5650 5657 5662 5665 5668 5669 5669 5670 5670 5669 5667 5664 5663 5661 5659 5657 5656 5656 5654 5653 5651 5649 5648 5648 5647 5646 5646 5645 5644 5644 5643 5641 5640 5639 5638 5637 5636 5634 5633 5632
5637 5636 5635 5637 5646 5652 5657 5659 5662 5663 5664 5664 5663 5663 5661 5659 5657 5655 5652 5650 5649 5649 5647 5645 5643 5642 5642 5641 5640 5639 5639 5638 5636 5635 5634 5634 5632 5631 5629 5628 5628 5627 5627 5626
5630 5632 5632 5634 5642 5642 5647 5654 5656 5656 5656 5656 5656 5655 5655 5654 5651 5649 5646 5644 5642 5641 5640 5638 5637 5636 5635 5634 5633 5632 5632 5631 5630 5627 5626 5625 5624 5623 5621 5620 5620 5620 5620 5620